Weather History for Liberia, Costa Rica

Change the Weather History Date:

Tuesday, November 8, 2011

  Actual Average Record
Temperature  
Mean Temperature 80 °F -  
Max Temperature 90 °F 86 °F 91 °F (1996)
Min Temperature 69 °F 72 °F 67 °F (2014)
Cooling Degree Days 14    
Growing Degree Days 30 (Base 50)    
Moisture  
Dew Point 69 °F    
Average Humidity 63    
Maximum Humidity 94    
Minimum Humidity 38    
Precipitation  
Precipitation 0.00 in - - ()
Sea Level Pressure  
Sea Level Pressure 29.81 in    
Wind  
Wind Speed 3 mph ()    
Max Wind Speed 10 mph    
Max Gust Speed -    
Visibility 8.4 miles    
Events      
Averages and records for this station are not official NWS values.
T = Trace of Precipitation, MM = Missing Value Source: Averaged Metar Reports

Daily Weather History Graph

Daily Weather History Graph

Search for Another Location

Airport:

Trip Planner

Search our weather history database for the weather conditions in past years. The results will help you decide how hot, cold, wet, or windy it might be!

Date:

Astronomy

Nov. 08, 2011 Rise Set
Actual Time 5:35 AM CST 5:16 PM CST
Civil Twilight 5:13 AM CST 5:38 PM CST
Nautical Twilight 4:47 AM CST 6:03 PM CST
Astronomical Twilight 4:22 AM CST 6:29 PM CST
Moon 3:48 PM CST (11/8) 3:45 AM CST (11/8)
Length of Visible Light 12h 25m
Length of Day
11h 41m
Waxing Gibbous, 96% of the Moon is Illuminated
Nov 8
Waxing Gibbous
Nov 10
Full
Nov 18
Last Quarter
Nov 25
New
Dec 2
First Quarter

Hourly Weather History & Observations

Time (CST) Temp. Heat Index Dew Point Humidity Pressure Visibility Wind Dir Wind Speed Gust Speed Precip Events Conditions
6:00 AM 71 °F - 67 °F 84% 29.79 in 12 mi South 3.5 mph - -   Clear
6:00 AM 71.6 °F - 68.0 °F 88% 29.82 in - South 3.5 mph - N/A   Clear
7:00 AM 75.2 °F - 69.8 °F 83% 29.83 in - Calm Calm - N/A   Clear
8:00 AM 78.8 °F - 71.6 °F 78% 29.86 in - Calm Calm - N/A   Clear
9:00 AM 73 °F - 72 °F 94% 29.83 in 12 mi Calm Calm - -   Clear
9:00 AM 82.4 °F 87.2 °F 71.6 °F 70% 29.88 in - Calm Calm - N/A   Clear
10:00 AM 84.2 °F 88.4 °F 69.8 °F 62% 29.88 in - NW 4.6 mph - N/A   Clear
11:00 AM 86.0 °F 90.4 °F 69.8 °F 58% 29.86 in - West 5.8 mph - N/A   Clear
12:00 PM 88 °F - 69 °F 43% 29.83 in 12 mi WSW 4.6 mph - -   Clear
12:00 PM 87.8 °F 91.4 °F 68.0 °F 52% 29.83 in - WSW 4.6 mph - N/A   Clear
1:00 PM 87.8 °F 91.4 °F 68.0 °F 52% 29.81 in 6.2 mi WNW 3.5 mph - N/A   Partly Cloudy
2:00 PM 89.6 °F 93.4 °F 68.0 °F 49% 29.77 in 6.2 mi West 5.8 mph - N/A   Partly Cloudy
3:00 PM 89 °F - 67 °F 38% 29.75 in 12 mi West 5.8 mph - -   Scattered Clouds
3:00 PM 86.0 °F 90.4 °F 69.8 °F 58% 29.82 in 6.2 mi NNW 10.4 mph - N/A   Mostly Cloudy
4:00 PM 89.6 °F 92.2 °F 66.2 °F 46% 29.76 in 6.2 mi West 3.5 mph - N/A   Unknown
5:00 PM 86.0 °F 88.2 °F 66.2 °F 51% 29.78 in 6.2 mi SSW 3.5 mph - N/A   Unknown
6:00 PM 81 °F - 68 °F 57% 29.75 in 12 mi SSW 3.5 mph - -  
6:00 PM 80.6 °F 83.2 °F 68.0 °F 65% 29.78 in 6.2 mi SSW 3.5 mph - N/A   Clear
7:00 PM 78.8 °F - 66.2 °F 65% 29.80 in 6.2 mi Calm Calm - N/A   Clear
8:00 PM 75.2 °F - 66.2 °F 73% 29.83 in 6.2 mi SSW 4.6 mph - N/A   Clear